Total_Precipitation_Accumulation
0.87 0.84 0.77 0.76 0.70 0.76 0.85 0.89 0.81 0.72 0.66 0.58 0.54 0.54 0.51 0.50 0.52 0.53 0.58 0.52 0.58 0.71 0.77 0.69 0.56 0.43 0.34 0.36 0.44 0.50 0.56 0.62 0.65 0.66 0.57 0.48 0.40 0.28 0.19 0.17 0.16 0.16 0.16
0.93 0.89 0.84 0.85 0.82 0.82 0.93 0.91 0.79 0.78 0.75 0.65 0.53 0.51 0.51 0.51 0.53 0.49 0.53 0.61 0.61 0.61 0.76 0.85 0.79 0.56 0.45 0.43 0.47 0.54 0.57 0.56 0.57 0.56 0.52 0.49 0.43 0.37 0.27 0.23 0.23 0.19 0.17
0.83 0.86 0.86 0.86 0.90 0.98 1.02 1.04 0.85 0.80 0.72 0.62 0.56 0.49 0.44 0.44 0.41 0.42 0.39 0.41 0.48 0.57 0.69 0.84 0.87 0.71 0.59 0.54 0.52 0.53 0.53 0.52 0.52 0.48 0.43 0.40 0.37 0.35 0.32 0.29 0.30 0.27 0.26
0.76 0.89 0.90 0.86 0.89 1.01 1.08 1.11 0.99 0.89 0.77 0.69 0.69 0.60 0.50 0.46 0.40 0.41 0.42 0.35 0.42 0.42 0.56 0.63 0.70 0.71 0.68 0.62 0.57 0.51 0.45 0.40 0.39 0.38 0.36 0.32 0.28 0.25 0.26 0.28 0.31 0.31 0.32
0.83 1.00 1.10 1.10 1.09 1.09 1.07 1.02 1.04 0.98 0.87 0.81 0.77 0.73 0.63 0.52 0.49 0.44 0.44 0.41 0.34 0.36 0.43 0.36 0.40 0.44 0.52 0.56 0.58 0.56 0.47 0.38 0.34 0.33 0.31 0.25 0.19 0.17 0.19 0.22 0.22 0.24 0.27
1.18 1.32 1.31 1.38 1.43 1.29 1.22 1.15 1.15 1.08 0.96 0.92 0.84 0.72 0.67 0.57 0.57 0.54 0.53 0.48 0.43 0.37 0.40 0.34 0.30 0.27 0.31 0.41 0.49 0.59 0.53 0.43 0.37 0.31 0.29 0.23 0.18 0.15 0.15 0.17 0.17 0.18 0.21
1.52 1.72 1.67 1.71 1.71 1.55 1.48 1.55 1.71 1.64 1.34 1.10 1.04 0.86 0.70 0.56 0.61 0.57 0.53 0.51 0.47 0.50 0.52 0.45 0.33 0.29 0.22 0.23 0.29 0.48 0.58 0.50 0.45 0.39 0.33 0.27 0.20 0.15 0.13 0.13 0.15 0.17 0.18
1.43 1.56 1.81 1.88 1.78 1.77 1.88 1.92 2.18 2.26 1.84 1.45 1.38 1.41 1.13 0.92 0.66 0.48 0.48 0.48 0.50 0.64 0.60 0.45 0.36 0.29 0.23 0.22 0.16 0.25 0.42 0.51 0.48 0.43 0.37 0.33 0.25 0.17 0.12 0.11 0.13 0.14 0.16
1.40 1.49 1.65 1.79 1.78 1.84 1.89 1.99 2.30 2.68 2.41 1.95 1.70 1.81 1.48 1.28 1.08 0.64 0.44 0.44 0.51 0.64 0.69 0.61 0.50 0.42 0.32 0.31 0.25 0.22 0.23 0.31 0.44 0.43 0.43 0.39 0.30 0.19 0.15 0.14 0.16 0.16 0.16
1.29 1.36 1.50 1.62 1.72 1.74 1.84 1.91 2.02 2.44 2.71 2.41 2.13 1.78 1.45 1.32 1.35 1.10 0.71 0.56 0.60 0.62 0.66 0.65 0.60 0.59 0.53 0.47 0.44 0.28 0.24 0.24 0.38 0.48 0.52 0.50 0.41 0.29 0.24 0.22 0.22 0.21 0.18
1.39 1.38 1.51 1.57 1.58 1.63 1.72 2.00 2.23 2.47 2.61 2.53 2.43 2.26 2.03 1.71 1.28 1.30 1.22 0.93 0.78 0.69 0.69 0.70 0.69 0.66 0.63 0.62 0.68 0.47 0.30 0.23 0.27 0.45 0.59 0.63 0.55 0.41 0.34 0.29 0.26 0.24 0.21
1.49 1.53 1.58 1.57 1.53 1.56 1.64 1.83 2.08 2.29 2.55 2.69 2.57 2.37 2.23 2.03 1.73 1.55 1.33 1.21 1.12 0.90 0.87 0.85 0.77 0.74 0.73 0.81 0.83 0.80 0.44 0.23 0.20 0.30 0.48 0.66 0.68 0.58 0.47 0.39 0.31 0.28 0.25
1.37 1.41 1.52 1.62 1.69 1.71 1.79 1.94 2.04 1.96 2.16 2.50 2.46 2.32 2.22 1.96 1.89 1.88 1.69 1.42 1.25 0.93 0.84 0.85 0.80 0.87 0.80 0.77 0.96 1.13 0.63 0.33 0.23 0.26 0.31 0.39 0.50 0.62 0.65 0.59 0.50 0.39 0.33
1.33 1.27 1.31 1.42 1.55 1.69 1.72 1.77 1.75 1.68 1.81 2.01 2.08 2.27 2.37 2.12 1.92 1.77 1.65 1.64 1.38 1.13 0.95 0.85 0.74 0.75 0.77 0.76 0.94 1.11 0.76 0.52 0.31 0.26 0.28 0.31 0.33 0.37 0.49 0.60 0.65 0.59 0.53
1.08 1.01 1.02 1.05 1.12 1.19 1.26 1.41 1.50 1.57 1.60 1.71 1.83 1.97 2.13 2.24 2.14 1.88 1.76 1.68 1.58 1.36 1.18 1.06 0.92 0.73 0.82 0.89 1.03 0.87 0.75 0.75 0.54 0.36 0.28 0.29 0.28 0.25 0.27 0.32 0.40 0.44 0.49
1.00 0.93 0.89 0.85 0.81 0.77 0.81 0.99 1.18 1.29 1.39 1.53 1.69 1.80 1.83 1.91 2.10 2.06 1.87 1.79 1.67 1.47 1.30 1.13 1.04 0.87 0.96 0.93 1.04 0.85 0.86 0.93 0.69 0.49 0.36 0.31 0.29 0.24 0.19 0.16 0.15 0.16 0.19
0.98 0.96 0.88 0.82 0.89 0.87 0.82 0.87 0.94 0.99 1.07 1.20 1.33 1.44 1.56 1.83 2.14 2.18 2.13 1.98 1.82 1.62 1.35 1.20 0.99 0.83 1.03 1.09 1.07 0.95 0.92 0.87 0.71 0.61 0.48 0.39 0.33 0.28 0.24 0.18 0.13 0.12 0.11
0.67 0.75 0.83 0.78 0.77 0.79 0.80 0.85 0.88 0.91 0.94 1.01 1.09 1.20 1.32 1.63 2.00 2.23 2.32 2.21 2.03 1.85 1.66 1.50 1.19 0.90 0.94 1.19 1.31 1.24 1.04 0.91 0.82 0.78 0.69 0.55 0.44 0.36 0.30 0.25 0.20 0.16 0.13
0.50 0.54 0.63 0.64 0.72 0.79 0.81 0.83 0.84 0.87 0.90 0.98 1.11 1.15 1.17 1.34 1.56 1.80 1.99 2.10 2.08 2.05 1.96 1.70 1.44 1.18 1.05 1.10 1.31 1.32 1.21 1.16 1.03 0.98 0.98 0.87 0.71 0.58 0.46 0.38 0.33 0.26 0.20
0.52 0.58 0.70 0.74 0.69 0.67 0.71 0.82 0.86 0.80 0.79 0.85 0.92 0.99 1.06 1.09 1.22 1.39 1.53 1.72 1.92 2.12 2.17 1.99 1.73 1.46 1.30 1.14 1.19 1.31 1.38 1.30 1.21 1.06 1.03 0.97 0.95 0.86 0.71 0.57 0.47 0.39 0.34
0.57 0.59 0.70 0.80 0.87 0.82 0.79 0.87 0.84 0.82 0.83 0.81 0.85 0.84 0.89 0.90 0.93 1.09 1.15 1.39 1.71 1.96 2.05 2.08 1.95 1.67 1.43 1.24 1.01 1.05 1.26 1.44 1.43 1.34 1.32 1.15 1.06 0.95 0.87 0.80 0.73 0.62 0.54
0.47 0.47 0.51 0.58 0.67 0.72 0.91 0.87 0.71 0.69 0.74 0.79 0.83 0.83 0.84 0.77 0.74 0.77 0.88 1.02 1.32 1.53 1.65 1.70 1.70 1.55 1.38 1.24 1.16 1.11 1.12 1.20 1.27 1.20 1.19 1.27 1.23 1.12 1.04 0.96 0.98 0.99 0.90
0.40 0.38 0.37 0.37 0.44 0.59 0.67 0.51 0.49 0.56 0.69 0.80 0.85 0.87 0.84 0.79 0.82 0.81 0.77 0.77 0.86 1.05 1.25 1.44 1.45 1.36 1.42 1.32 1.23 1.13 1.11 1.07 1.04 1.12 1.15 1.20 1.23 1.17 1.12 1.11 1.14 1.07 1.00
0.30 0.29 0.36 0.44 0.46 0.47 0.52 0.42 0.42 0.53 0.72 0.84 0.83 0.78 0.84 0.84 0.87 0.92 0.82 0.83 0.79 0.81 0.90 0.95 1.09 1.29 1.43 1.56 1.50 1.38 1.37 1.29 1.20 1.22 1.20 1.15 1.08 1.05 1.01 1.01 1.05 0.93 0.85
0.34 0.37 0.48 0.56 0.49 0.41 0.44 0.45 0.51 0.67 0.79 0.87 0.83 0.82 0.89 0.89 1.02 1.04 0.94 0.97 0.91 0.86 0.84 0.95 1.05 1.16 1.24 1.35 1.45 1.42 1.39 1.33 1.24 1.16 1.10 1.04 0.98 0.96 0.96 0.89 0.86 0.86 0.77
0.31 0.38 0.40 0.38 0.38 0.44 0.49 0.46 0.58 0.78 0.91 1.01 0.96 0.95 1.12 1.05 1.00 0.93 0.89 1.03 1.01 0.85 0.75 0.79 0.85 0.92 0.96 1.06 1.17 1.17 1.24 1.27 1.19 1.10 0.94 0.87 0.89 0.91 0.92 0.84 0.77 0.74 0.70